Content
SEND FEEDBACK

Daily
Averages
Monthly
Summary
United States of America

ROCK HILL, NEW YORK


Home > North America > United States > New York
Elevation: 1260 feet     Latitude: 41 35N     Longitude: 074 37W

WEATHER
 
SELECT A DAY
Number of Records: 443,433;   Date Range: 1/1/95 - 7/26/14
 
SHARE

PRINT THIS DATA

[ ← Previous Day ]
WEATHER ALMANAC - DECEMBER 14, 2013
[ Next Day → ]
[ °C ]   °F
Weather ElementAverageHighLow
Temperature13 °F17.6 °F (12:35 am) (3:35 am)
Dewpoint6.6 °F10.4 °F (11:35 pm) (7:00 pm)
Humidity75.6 %85 % (10:15 pm)63 % (12:35 am)
Barometer30.22 in30.40 in (8:55 am)29.82 in (11:55 pm)
Wind Speed12.3 mph21.9 mph (10:35 pm)
Wind Gust32.2 mph (11:35 pm)
Weather ElementAverage
Visibility3.1 mi
Wind DirectionESE (109.8 °)

Weather ElementTotal
Precipitation---
Heating Degree Days56.2 (Base 65)
Averaged from 62 records on December 14, 2013
WEATHER CONDITIONS BREAKOUT
WIND DIRECTION BREAKOUT
WEATHER BY HOUR - DECEMBER 14, 2013
[ °C ]   °F
Local TimeTemperatureDewpointHumidityBarometerVisibilityWind DirectionWind SpeedGust SpeedPrecipitationEventsConditions
12:35 AM17.6 °F6.8 °F63 %30.28 in10.0 miNNW (330°)6.9 mphOvercast
12:55 AM17.6 °F8.6 °F68 %30.28 in10.0 miNorth (350°)4.6 mph
1:15 AM17.6 °F6.8 °F63 %30.30 in10.0 miWNW (300°)4.6 mphOvercast
1:35 AM17.6 °F8.6 °F68 %30.31 in10.0 miNW (310°)4.6 mphOvercast
1:55 AM17.6 °F6.8 °F63 %30.31 in10.0 miNNW (330°)5.8 mphOvercast
2:15 AM17.6 °F6.8 °F63 %30.31 in10.0 miNorth (350°)4.6 mphMostly Cloudy
2:35 AM17.6 °F6.8 °F63 %30.31 in8.0 miNorth (10°)4.6 mphMostly Cloudy
2:55 AM17.6 °F8.6 °F68 %30.31 in4.0 miNorth (350°)5.8 mphOvercast
3:15 AM15.8 °F8.6 °F73 %30.31 in5.0 miCalmOvercast
3:35 AM0.0 °F0.0 °FNorth
6:55 AM15.8 °F8.6 °F73 %30.34 in1.8 miEast (90°)9.2 mph
7:15 AM15.8 °F8.6 °F73 %30.34 in5.0 miEast (90°)9.2 mphOvercast
7:35 AM15.8 °F8.6 °F73 %30.36 in5.0 miEast (100°)6.9 mphOvercast
7:55 AM14.0 °F8.6 °F79 %30.37 in1.0 miEast (80°)9.2 mphOvercast
8:15 AM12.2 °F6.8 °F79 %30.38 in1.2 miEast (80°)10.4 mphOvercast
8:35 AM12.2 °F6.8 °F79 %30.39 in1.2 miENE (70°)9.2 mphOvercast
8:55 AM12.2 °F5.0 °F73 %30.40 in1.0 miEast (80°)9.2 mphOvercast
9:15 AM12.2 °F6.8 °F79 %30.40 in1.0 miEast (80°)9.2 mphOvercast
9:35 AM12.2 °F5.0 °F73 %30.40 in1.2 miEast (80°)10.4 mphOvercast
9:55 AM10.4 °F5.0 °F79 %30.40 in1.5 miEast (80°)10.4 mphOvercast
10:15 AM10.4 °F5.0 °F79 %30.40 in1.5 miEast (90°)12.7 mphOvercast
10:35 AM12.2 °F6.8 °F79 %30.40 in3.0 miEast (80°)6.9 mphOvercast
10:55 AM12.2 °F5.0 °F73 %30.40 in4.0 miEast (90°)9.2 mphMostly Cloudy
11:15 AM12.2 °F6.8 °F79 %30.39 in5.0 miESE (110°)10.4 mphScattered Clouds
11:35 AM12.2 °F5.0 °F73 %30.37 in5.0 miEast (90°)12.7 mphMostly Cloudy
11:55 AM12.2 °F6.8 °F79 %30.36 in2.5 miENE (70°)11.5 mphOvercast
12:15 PM12.2 °F5.0 °F73 %30.36 in4.0 miEast (80°)8.1 mphMostly Cloudy
12:35 PM12.2 °F6.8 °F79 %30.34 in3.0 miEast (100°)10.4 mphOvercast
12:55 PM12.2 °F6.8 °F79 %30.32 in3.0 miENE (70°)11.5 mphOvercast
1:15 PM12.2 °F6.8 °F79 %30.30 in2.5 miENE (70°)12.7 mphOvercast
1:35 PM12.2 °F6.8 °F79 %30.29 in2.5 miEast (80°)12.7 mph20.7 mphOvercast
1:55 PM14.0 °F8.6 °F79 %30.28 in3.0 miEast (90°)11.5 mph16.1 mphOvercast
2:15 PM14.0 °F6.8 °F73 %30.27 in6.0 miEast (80°)13.8 mph18.4 mphOvercast
2:35 PM14.0 °F6.8 °F73 %30.25 in1.5 miEast (80°)11.5 mphOvercast
2:55 PM12.2 °F6.8 °F79 %30.24 in1.5 miEast (90°)16.1 mph19.6 mphOvercast
3:15 PM12.2 °F6.8 °F79 %30.23 in1.5 miEast (90°)17.3 mph21.9 mphOvercast
3:35 PM12.2 °F6.8 °F79 %30.23 in2.0 miEast (100°)15.0 mph19.6 mphOvercast
3:55 PM12.2 °F6.8 °F79 %30.23 in1.5 miEast (100°)13.8 mphOvercast
4:15 PM12.2 °F6.8 °F79 %30.23 in1.8 miEast (100°)18.4 mph21.9 mphOvercast
4:35 PM12.2 °F6.8 °F79 %30.20 in1.8 miEast (90°)16.1 mph23.0 mphOvercast
4:55 PM12.2 °F5.0 °F73 %30.19 in2.0 miEast (90°)15.0 mph21.9 mphOvercast
5:15 PM12.2 °F5.0 °F73 %30.17 in4.0 miEast (90°)13.8 mph19.6 mphOvercast
5:35 PM12.2 °F5.0 °F73 %30.17 in1.8 miEast (90°)12.7 mph18.4 mphOvercast
5:55 PM12.2 °F5.0 °F73 %30.16 in2.5 miEast (100°)15.0 mph18.4 mphOvercast
6:15 PM10.4 °F5.0 °F79 %30.16 in1.8 miEast (90°)12.7 mphOvercast
6:35 PM10.4 °F5.0 °F79 %30.14 in1.2 miEast (100°)15.0 mph23.0 mphOvercast
6:55 PM10.4 °F5.0 °F79 %30.13 in0.8 miEast (80°)13.8 mph20.7 mphOvercast
7:15 PM10.4 °F5.0 °F79 %30.11 in0.8 miEast (90°)18.4 mph21.9 mphOvercast
7:35 PM10.4 °F5.0 °F79 %30.09 in1.8 miEast (90°)12.7 mph23.0 mphOvercast
7:55 PM10.4 °F3.2 °F73 %30.07 in1.2 miEast (90°)13.8 mph24.2 mphOvercast
8:15 PM10.4 °F5.0 °F79 %30.04 in3.0 miEast (80°)18.4 mph25.3 mphOvercast
8:35 PM12.2 °F6.8 °F79 %30.03 in3.0 miEast (90°)17.3 mph23.0 mphOvercast
8:55 PM12.2 °F6.8 °F79 %30.02 in1.2 miEast (90°)17.3 mph21.9 mphOvercast
9:15 PM12.2 °F6.8 °F79 %30.00 in1.2 miEast (80°)13.8 mph23.0 mphOvercast
9:35 PM12.2 °F6.8 °F79 %29.97 in1.5 miEast (80°)17.3 mph29.9 mphOvercast
9:55 PM12.2 °F6.8 °F79 %29.95 in1.0 miEast (90°)20.7 mph25.3 mphOvercast
10:15 PM12.2 °F8.6 °F85 %29.93 in1.2 miEast (80°)18.4 mph24.2 mphOvercast
10:35 PM14.0 °F8.6 °F79 %29.91 in0.8 miEast (80°)21.9 mph27.6 mphOvercast
10:55 PM14.0 °F8.6 °F79 %29.88 in1.2 miEast (80°)15.0 mph25.3 mphOvercast
11:15 PM15.8 °F8.6 °F73 %29.85 in1.0 miEast (80°)20.7 mph28.8 mphOvercast
11:35 PM15.8 °F10.4 °F79 %29.84 in1.2 miEast (80°)18.4 mph32.2 mphOvercast
11:55 PM15.8 °F10.4 °F79 %29.82 in1.5 miEast (80°)18.4 mph28.8 mphOvercast
Hourly data recorded from KMSV, located miles away from Rock Hill, New York







STORIES FROM OUR PARTNERS